This demonstration page uses our WeatherBlox Daily Observations layout. Learn more.

Left ArrowRight Arrow

Hourly Observations for May 22, 2022

Temp ( °F °C ) Dew Point ( °F °C ) Humidity (%) Winds ( mph kmh ) Pressure ( in mb ) Visibility ( mi km ) Precip ( " mm )
12:54 am 00:54 Clear 40 4.4 31 -0.6 70 70 Calm 30.33 1027 10 16 0.00 0.00
1:54 am 01:54 Clear 39 3.9 31 -0.6 73 73 Calm 30.33 1027 10 16 0.00 0.00
2:54 am 02:54 Clear 37 2.8 31 -0.6 79 79 NNW 3 6 30.32 1027 10 16 0.00 0.00
3:54 am 03:54 Clear 38 3.3 31 -0.6 76 76 Calm 30.33 1027 10 16 0.00 0.00
4:54 am 04:54 Clear 37 2.8 31 -0.6 79 79 WSW 3 6 30.37 1028 10 16 0.00 0.00
5:54 am 05:54 Clear 36 2.2 32 0 86 86 SSW 3 6 30.40 1029 10 16 0.00 0.00
6:54 am 06:54 Sunny 38 3.3 33 0.6 83 83 Calm 30.42 1030 10 16 0.00 0.00
7:54 am 07:54 Sunny 48 8.9 35 1.7 61 61 WNW 3 6 30.43 1030 10 16 0.00 0.00
8:54 am 08:54 Sunny 55 12.8 35 1.7 47 47 WSW 6 9 30.44 1031 10 16 0.00 0.00
9:54 am 09:54 Sunny 59 15 33 0.6 38 38 W 7 11 30.45 1031 10 16 0.00 0.00
10:54 am 10:54 Sunny 62 16.7 33 0.6 34 34 W 12 19 30.43 1031 10 16 0.00 0.00
11:54 am 11:54 Sunny 64 17.8 34 1.1 33 33 NW 6 9 30.42 1030 10 16 0.00 0.00
12:54 pm 12:54 Sunny 65 18.3 33 0.6 31 31 NNW 12 19 30.40 1029 10 16 0.00 0.00
1:54 pm 13:54 Sunny 67 19.4 34 1.1 30 30 NW 7 11 30.37 1028 10 16 0.00 0.00
2:54 pm 14:54 Sunny 68 20 36 2.2 31 31 Calm 30.33 1027 10 16 0.00 0.00
3:54 pm 15:54 Sunny 71 21.7 37 2.8 29 29 NNW 9 15 30.30 1026 10 16 0.00 0.00
4:54 pm 16:54 Sunny 70 21.1 35 1.7 28 28 N 6 9 30.29 1026 10 16 0.00 0.00
5:54 pm 17:54 Sunny 70 21.1 36 2.2 29 29 VRB 3 6 30.28 1025 10 16 0.00 0.00
6:54 pm 18:54 Sunny 67 19.4 34 1.1 30 30 ENE 7 11 30.27 1025 10 16 0.00 0.00
7:54 pm 19:54 Sunny 65 18.3 34 1.1 32 32 E 6 9 30.26 1025 10 16 0.00 0.00
8:54 pm 20:54 Mostly Clear 64 17.8 33 0.6 32 32 E 9 15 30.27 1025 10 16 0.00 0.00
9:54 pm 21:54 Clear 63 17.2 35 1.7 35 35 E 9 15 30.29 1026 10 16 0.00 0.00
10:54 pm 22:54 Clear 62 16.7 34 1.1 35 35 E 12 19 30.30 1026 10 16 0.00 0.00
11:54 pm 23:54 Clear 61 16.1 34 1.1 36 36 ESE 8 13 30.32 1027 10 16 0.00 0.00

Powered by AerisWeather